Location: Ferchesar
(52.6477°N, 12.4298°E)
Time: 10:53:26
(UTC+01:00)

A-11 Canister half - All Passes

Search period start: 01 March 2021 00:00
Search period end: 11 March 2021 00:00
Orbit: 1524 x 1684 km, 47.3° (Epoch: 28 February)

Date Brightness Start Highest point End Pass type
(mag) Time Alt. Az. Time Alt. Az. Time Alt. Az.
01 Mar - 02:41:48 10° SE 02:43:20 10° ESE 02:44:52 10° ESE visible
01 Mar - 04:37:42 10° SSW 04:45:58 34° SE 04:54:02 10° E visible
01 Mar - 06:40:30 10° WSW 06:49:46 59° SSE 06:58:50 10° E daylight
01 Mar - 08:44:54 10° W 08:54:06 61° S 09:03:11 10° ESE daylight
01 Mar - 10:49:43 10° W 10:57:59 37° SW 11:06:13 10° SSE daylight
01 Mar - 12:57:09 10° WSW 13:00:42 13° SW 13:04:15 10° SSW daylight
02 Mar - 04:16:11 10° SSW 04:24:23 33° SE 04:32:23 10° E visible
02 Mar - 06:18:52 10° WSW 06:28:09 58° SSE 06:37:13 10° E visible
02 Mar - 08:23:15 10° W 08:32:29 62° S 08:41:35 10° ESE daylight
02 Mar - 10:28:02 10° W 10:36:24 39° SSW 10:44:42 10° SSE daylight
02 Mar - 12:35:07 10° W 12:39:10 14° SW 12:43:14 10° SSW daylight
03 Mar - 03:54:41 10° SSW 04:02:48 32° SE 04:10:42 10° E visible
03 Mar - 05:57:14 10° WSW 06:06:32 58° SSE 06:15:35 10° E visible
03 Mar - 08:01:35 10° W 08:10:52 62° S 08:19:58 10° ESE daylight
03 Mar - 10:06:23 10° W 10:14:49 40° SSW 10:23:11 10° SSE daylight
03 Mar - 12:13:09 10° W 12:17:39 15° SW 12:22:08 10° SSW daylight
04 Mar - 03:33:12 10° SSW 03:41:13 31° SE 03:49:02 10° E visible
04 Mar - 05:35:37 10° WSW 05:44:54 57° SSE 05:53:57 10° E visible
04 Mar - 07:39:56 10° W 07:49:14 63° S 07:58:21 10° ESE daylight
04 Mar - 09:44:42 10° W 09:53:14 41° SSW 10:01:40 10° SE daylight
04 Mar - 11:51:14 10° W 11:56:06 16° SW 12:00:59 10° SSW daylight
05 Mar - 03:11:42 10° SSW 03:19:38 30° SE 03:27:21 10° E visible
05 Mar - 05:13:59 10° SW 05:23:17 56° SSE 05:32:19 10° E visible
05 Mar - 07:18:17 10° W 07:27:37 63° S 07:36:44 10° ESE daylight
05 Mar - 09:23:02 10° W 09:31:39 42° SSW 09:40:08 10° SE daylight
05 Mar - 11:29:22 10° W 11:34:34 17° SW 11:39:47 10° SSW daylight
06 Mar - 02:50:15 10° SSW 02:58:03 28° SE 03:05:40 10° E visible
06 Mar - 04:52:22 10° SW 05:01:40 55° SSE 05:10:42 10° E visible
06 Mar - 06:56:37 10° W 07:05:59 64° S 07:15:08 10° ESE daylight
06 Mar - 09:01:22 10° W 09:10:03 44° SSW 09:18:36 10° SE daylight
06 Mar - 11:07:31 10° W 11:13:02 18° SW 11:18:33 10° SSW daylight
07 Mar - 02:28:46 10° S 02:36:28 27° SE 02:43:59 10° E visible
07 Mar - 04:30:45 10° SW 04:40:02 54° SSE 04:49:04 10° E visible
07 Mar - 06:34:57 10° W 06:44:21 64° S 06:53:31 10° ESE daylight
07 Mar - 08:39:42 10° W 08:48:27 45° SSW 08:57:04 10° SE daylight
07 Mar - 10:45:41 10° W 10:51:30 19° SW 10:57:18 10° S daylight
08 Mar - 02:07:19 10° S 02:14:53 26° SE 02:22:17 10° E visible
08 Mar - 04:09:07 10° SW 04:18:25 53° SSE 04:27:26 10° E visible
08 Mar - 06:13:17 10° W 06:22:43 64° S 06:31:54 10° ESE daylight
08 Mar - 08:18:02 10° W 08:26:51 46° SSW 08:35:31 10° SE daylight
08 Mar - 10:23:52 10° W 10:29:57 20° SW 10:36:00 10° S daylight
09 Mar - 01:45:53 10° S 01:53:19 25° SE 02:00:35 10° E visible
09 Mar - 03:47:30 10° SW 03:56:47 52° SSE 04:05:48 10° E visible
09 Mar - 05:51:37 10° W 06:01:05 65° S 06:10:17 10° ESE visible
09 Mar - 07:56:22 10° W 08:05:15 47° SSW 08:13:58 10° SE daylight
09 Mar - 10:02:06 10° W 10:08:25 21° SW 10:14:41 10° S daylight
10 Mar - 01:24:27 10° S 01:31:45 24° SE 01:38:52 10° E visible
10 Mar - 03:25:54 10° SW 03:35:10 51° SSE 03:44:10 10° E visible
10 Mar - 05:29:58 10° W 05:39:27 65° S 05:48:40 10° ESE visible
10 Mar - 07:34:41 10° W 07:43:39 49° SSW 07:52:25 10° SE daylight
10 Mar - 09:40:19 10° W 09:46:52 22° SW 09:53:22 10° S daylight
